Voltar ao catálogo

SCOUT A DEB

AtivoPO
NORAD 4555·DEBRIS·🇺🇸 United States

Lançado May 19, 1966 de Vandenberg Space Force Base

Loading…

Próximas Passagens (próximas 24 horas)

TLE

AtualizadoSource: Space-Track

Época: Sep 14, 2026, 11:27 UTC

1 04555U 66041F   26257.47713866  .00001987  00000-0  47285-3 0  9994
2 04555  90.2035  76.8381 0040603 161.3085 198.9626 14.53099267436897

Acompanhe SCOUT A DEB em tempo real com AllMySat

Download on the App Store